• In Uzbekistan
  • List of Countries
  • For 7 days
  • Water Temperature
  • Satellite Maps
  • Weather Map
  • Weather Widgets
  • user-avatar
    Login

    Hourly Weather Prutz

    Today, 29 April, Saturday

    Time Temperature Precipitation Wind Pressure Humidity
    00:00 -9°C° 0 mm 1 mps 628 mmHg 97%
    01:00 -10°C° 0 mm 1 mps 628 mmHg 97%
    02:00 -11°C° 0 mm 1 mps 628 mmHg 96%
    03:00 -11°C° 0 mm 1 mps 627 mmHg 96%
    04:00 -12°C° 0 mm 1 mps 627 mmHg 96%
    05:00 -9°C° 0 mm 1 mps 628 mmHg 95%
    06:00 -7°C° 0 mm 1 mps 629 mmHg 94%
    07:00 -3°C° 0 mm 1 mps 631 mmHg 93%
    08:00 -1°C° 0 mm 1 mps 631 mmHg 93%
    09:00 0°C° 0 mm 0 mps 631 mmHg 93%
    10:00 +2°C° 0 mm 0 mps 632 mmHg 93%
    11:00 +2°C° 0 mm 0 mps 632 mmHg 93%
    12:00 +2°C° 0 mm 0 mps 632 mmHg 94%
    13:00 +4°C° 0 mm 1 mps 632 mmHg 94%
    14:00 +4°C° 0 mm 1 mps 631 mmHg 94%
    15:00 +4°C° 0 mm 1 mps 631 mmHg 95%
    16:00 +4°C° 0 mm 1 mps 631 mmHg 95%
    17:00 +2°C° 0 mm 0 mps 631 mmHg 96%
    18:00 +1°C° 0 mm 0 mps 630 mmHg 97%
    19:00 0°C° 0 mm 0 mps 630 mmHg 98%
    20:00 0°C° 0 mm 1 mps 630 mmHg 98%
    21:00 -1°C° 0 mm 1 mps 630 mmHg 97%
    22:00 -1°C° 0 mm 1 mps 630 mmHg 97%
    23:00 -2°C° 0 mm 1 mps 630 mmHg 97%

    Tomorrow, 30 April, Sunday

    Time Temperature Precipitation Wind Pressure Humidity
    00:00 -4°C° 0 mm 2 mps 630 mmHg 96%
    01:00 -4°C° 0 mm 2 mps 630 mmHg 96%
    02:00 -4°C° 0 mm 2 mps 630 mmHg 96%
    03:00 -4°C° 0 mm 2 mps 630 mmHg 96%
    04:00 -4°C° 0 mm 2 mps 629 mmHg 96%
    05:00 -3°C° 0 mm 2 mps 630 mmHg 96%
    06:00 -2°C° 0 mm 2 mps 630 mmHg 95%
    07:00 -1°C° 0 mm 2 mps 630 mmHg 95%
    08:00 +1°C° 0 mm 2 mps 630 mmHg 95%
    09:00 +3°C° 0 mm 2 mps 630 mmHg 95%
    10:00 +5°C° 0 mm 1 mps 630 mmHg 95%
    11:00 +5°C° 0 mm 2 mps 630 mmHg 94%
    12:00 +5°C° 0 mm 2 mps 630 mmHg 94%
    13:00 +6°C° 0 mm 2 mps 630 mmHg 93%
    14:00 +6°C° 0 mm 2 mps 629 mmHg 93%
    15:00 +6°C° 0 mm 2 mps 629 mmHg 93%
    16:00 +7°C° 0 mm 2 mps 629 mmHg 93%
    17:00 +5°C° 0 mm 2 mps 629 mmHg 94%
    18:00 +4°C° 0 mm 2 mps 628 mmHg 95%
    19:00 +3°C° 0 mm 2 mps 628 mmHg 96%
    20:00 +2°C° 0 mm 2 mps 628 mmHg 96%
    21:00 +1°C° 0 mm 2 mps 628 mmHg 96%
    22:00 +1°C° 0 mm 2 mps 628 mmHg 96%
    23:00 -1°C° 0 mm 2 mps 628 mmHg 96%

    Day after tomorrow, 1 May, Monday

    Time Temperature Precipitation Wind Pressure Humidity
    00:00 -1°C° 0 mm 2 mps 627 mmHg 96%
    01:00 -1°C° 0 mm 2 mps 627 mmHg 95%
    02:00 -1°C° 0 mm 2 mps 627 mmHg 95%
    03:00 -1°C° 0 mm 2 mps 627 mmHg 95%
    04:00 -2°C° 0 mm 2 mps 626 mmHg 95%
    05:00 -1°C° 0 mm 2 mps 627 mmHg 94%
    06:00 +1°C° 0 mm 2 mps 627 mmHg 93%
    07:00 +2°C° 0 mm 2 mps 628 mmHg 93%
    08:00 +3°C° 0.1 mm 2 mps 628 mmHg 92%
    09:00 +4°C° 0.1 mm 2 mps 628 mmHg 91%
    10:00 +5°C° 0.1 mm 2 mps 629 mmHg 90%
    11:00 +5°C° 1.2 mm 2 mps 629 mmHg 92%
    12:00 +4°C° 1.2 mm 2 mps 629 mmHg 93%
    13:00 +3°C° 1.2 mm 2 mps 629 mmHg 94%
    14:00 +3°C° 2.3 mm 2 mps 629 mmHg 95%
    15:00 +2°C° 2.3 mm 2 mps 629 mmHg 96%
    16:00 +1°C° 2.3 mm 2 mps 629 mmHg 97%
    17:00 -1°C° 1.2 mm 2 mps 629 mmHg 97%
    18:00 -1°C° 1.2 mm 2 mps 629 mmHg 97%
    19:00 -2°C° 1.2 mm 2 mps 629 mmHg 98%
    20:00 -2°C° 0.8 mm 2 mps 630 mmHg 98%
    21:00 -2°C° 0.8 mm 2 mps 630 mmHg 98%
    22:00 -3°C° 0.8 mm 2 mps 630 mmHg 98%
    23:00 -1°C° 0.7 mm 1 mps 631 mmHg 98%

    2 May, Tuesday

    Time Temperature Precipitation Wind Pressure Humidity
    00:00 -1°C° 0.7 mm 1 mps 631 mmHg 98%
    01:00 -1°C° 0.7 mm 1 mps 631 mmHg 98%
    02:00 -1°C° 0.5 mm 1 mps 631 mmHg 98%
    03:00 -1°C° 0.5 mm 1 mps 631 mmHg 98%
    04:00 -1°C° 0.5 mm 1 mps 631 mmHg 97%
    05:00 -1°C° 0.2 mm 1 mps 631 mmHg 97%
    06:00 0°C° 0.2 mm 1 mps 631 mmHg 97%
    07:00 0°C° 0.2 mm 1 mps 631 mmHg 97%
    08:00 +1°C° 0.1 mm 1 mps 631 mmHg 96%
    09:00 +2°C° 0.1 mm 1 mps 631 mmHg 96%
    10:00 +3°C° 0.1 mm 1 mps 632 mmHg 95%
    11:00 +3°C° 0.3 mm 1 mps 631 mmHg 95%
    12:00 +3°C° 0.3 mm 1 mps 631 mmHg 95%
    13:00 +4°C° 0.3 mm 1 mps 631 mmHg 95%
    14:00 +4°C° 0.5 mm 1 mps 631 mmHg 95%
    15:00 +4°C° 0.5 mm 1 mps 631 mmHg 94%
    16:00 +4°C° 0.5 mm 1 mps 631 mmHg 94%
    17:00 +3°C° 0.3 mm 1 mps 631 mmHg 95%
    18:00 +2°C° 0.3 mm 1 mps 631 mmHg 96%
    19:00 +1°C° 0.3 mm 1 mps 631 mmHg 97%
    20:00 -1°C° 0.1 mm 1 mps 630 mmHg 97%
    21:00 -2°C° 0.1 mm 1 mps 630 mmHg 97%
    22:00 -4°C° 0.1 mm 1 mps 629 mmHg 97%
    23:00 -3°C° 0 mm 1 mps 630 mmHg 96%

    3 May, Wednesday

    Time Temperature Precipitation Wind Pressure Humidity
    00:00 -3°C° 0 mm 1 mps 630 mmHg 96%
    01:00 -4°C° 0 mm 2 mps 630 mmHg 95%
    02:00 -4°C° 0 mm 2 mps 630 mmHg 95%
    03:00 -4°C° 0 mm 2 mps 630 mmHg 94%
    04:00 -4°C° 0 mm 2 mps 629 mmHg 94%
    05:00 -3°C° 0 mm 2 mps 630 mmHg 94%
    06:00 0°C° 0 mm 1 mps 630 mmHg 93%
    07:00 +2°C° 0 mm 1 mps 630 mmHg 92%
    08:00 +3°C° 0 mm 1 mps 631 mmHg 91%
    09:00 +4°C° 0 mm 1 mps 631 mmHg 90%
    10:00 +6°C° 0 mm 1 mps 631 mmHg 88%
    11:00 +6°C° 0.1 mm 1 mps 631 mmHg 87%
    12:00 +7°C° 0.1 mm 1 mps 631 mmHg 86%
    13:00 +7°C° 0.1 mm 1 mps 631 mmHg 86%
    14:00 +7°C° 0.4 mm 1 mps 631 mmHg 87%
    15:00 +7°C° 0.4 mm 1 mps 631 mmHg 88%
    16:00 +7°C° 0.4 mm 1 mps 630 mmHg 89%
    17:00 +6°C° 0.5 mm 1 mps 630 mmHg 92%
    18:00 +5°C° 0.5 mm 1 mps 630 mmHg 94%
    19:00 +4°C° 0.5 mm 1 mps 630 mmHg 96%
    20:00 +3°C° 0.5 mm 1 mps 629 mmHg 97%
    21:00 +2°C° 0.5 mm 1 mps 629 mmHg 97%
    22:00 +1°C° 0.5 mm 1 mps 629 mmHg 97%
    23:00 +1°C° 0.4 mm 1 mps 629 mmHg 97%

    4 May, Thursday

    Time Temperature Precipitation Wind Pressure Humidity
    00:00 +1°C° 0.4 mm 1 mps 629 mmHg 97%
    01:00 +1°C° 0.4 mm 1 mps 629 mmHg 97%
    02:00 -1°C° 0.3 mm 0 mps 629 mmHg 97%
    03:00 -1°C° 0.3 mm 0 mps 629 mmHg 97%
    04:00 -1°C° 0.3 mm 0 mps 628 mmHg 97%
    05:00 0°C° 0.5 mm 0 mps 629 mmHg 96%
    06:00 +1°C° 0.5 mm 0 mps 629 mmHg 95%
    07:00 +3°C° 0.5 mm 1 mps 630 mmHg 95%
    08:00 +4°C° 0.4 mm 1 mps 630 mmHg 94%
    09:00 +5°C° 0.4 mm 1 mps 630 mmHg 93%
    10:00 +5°C° 0.4 mm 1 mps 630 mmHg 92%
    11:00 +6°C° 0.4 mm 1 mps 630 mmHg 91%
    12:00 +6°C° 0.4 mm 1 mps 630 mmHg 91%
    13:00 +7°C° 0.4 mm 1 mps 630 mmHg 90%
    14:00 +6°C° 0.8 mm 1 mps 630 mmHg 91%
    15:00 +6°C° 0.8 mm 1 mps 630 mmHg 92%
    16:00 +6°C° 0.8 mm 1 mps 630 mmHg 93%
    17:00 +6°C° 0.8 mm 1 mps 630 mmHg 94%
    18:00 +5°C° 0.8 mm 1 mps 630 mmHg 96%
    19:00 +4°C° 0.8 mm 1 mps 630 mmHg 97%
    20:00 +3°C° 0.4 mm 1 mps 630 mmHg 97%
    21:00 +2°C° 0.4 mm 1 mps 630 mmHg 98%
    22:00 +1°C° 0.4 mm 1 mps 630 mmHg 98%
    23:00 +1°C° 0.2 mm 1 mps 629 mmHg 98%
    Show more